| time (UTC) | temp F | wind direction | speed knots | gust knots | rain 1hr in | rain 24hr in | rain mn in | humidity % | barometer mb |
| 20260509191544 | 56 | 267 | 0.0 | 0.0 | 0.00 | 0.00 | 0.00 | 33 | 1008.7 |
| 20260509190043 | 56 | 329 | 0.0 | 0.0 | 0.00 | 0.00 | 0.00 | 35 | 1008.5 |
| 20260509184554 | 56 | 228 | 0.0 | 0.0 | 0.00 | 0.00 | 0.00 | 37 | 1008.3 |
| 20260509183037 | 55 | 321 | 0.0 | 0.0 | 0.00 | 0.00 | 0.00 | 37 | 1008.4 |
| 20260509181538 | 55 | 302 | 0.0 | 0.0 | 0.00 | 0.00 | 0.00 | 37 | 1008.3 |
| 20260509180033 | 55 | 309 | 0.0 | 0.0 | 0.00 | 0.00 | 0.00 | 39 | 1008.2 |
| 20260509174503 | 55 | 13 | 0.0 | 0.0 | 0.00 | 0.00 | 0.00 | 41 | 1008.3 |
| 20260509173001 | 54 | 304 | 0.0 | 0.0 | 0.00 | 0.00 | 0.00 | 42 | 1008.1 |
| 20260509171533 | 54 | 289 | 0.0 | 0.0 | 0.00 | 0.00 | 0.00 | 42 | 1007.8 |
| 20260509170029 | 54 | 324 | 0.0 | 0.0 | 0.00 | 0.00 | 0.00 | 41 | 1007.8 |
| 20260509164525 | 54 | 234 | 0.0 | 0.0 | 0.00 | 0.00 | 0.00 | 42 | 1007.7 |
| 20260509163025 | 55 | 318 | 0.0 | 0.0 | 0.00 | 0.00 | 0.00 | 42 | 1007.3 |
| 20260509161524 | 54 | 303 | 0.0 | 0.0 | 0.00 | 0.00 | 0.00 | 41 | 1007.2 |
| 20260509160024 | 54 | 302 | 0.0 | 0.0 | 0.00 | 0.00 | 0.00 | 42 | 1007.0 |
| 20260509154549 | 53 | 302 | 0.0 | 0.0 | 0.00 | 0.00 | 0.00 | 45 | 1006.8 |
| 20260509153052 | 53 | 279 | 0.0 | 0.0 | 0.00 | 0.00 | 0.00 | 46 | 1006.7 |
| 20260509151549 | 53 | 307 | 0.0 | 0.0 | 0.00 | 0.00 | 0.00 | 51 | 1006.4 |
| 20260509150045 | 53 | 315 | 0.0 | 0.0 | 0.00 | 0.00 | 0.00 | 49 | 1006.4 |
| 20260509144600 | 52 | 318 | 0.0 | 0.0 | 0.00 | 0.00 | 0.00 | 53 | 1006.0 |
| 20260509143041 | 51 | 333 | 0.0 | 0.0 | 0.00 | 0.00 | 0.00 | 58 | 1006.0 |
| 20260509141514 | 51 | 302 | 0.0 | 0.0 | 0.00 | 0.00 | 0.00 | 58 | 1005.8 |
| 20260509140008 | 51 | 360 | 0.0 | 0.0 | 0.00 | 0.00 | 0.00 | 60 | 1005.6 |
| 20260509134557 | 50 | 246 | 0.0 | 0.0 | 0.00 | 0.00 | 0.00 | 65 | 1005.3 |
| 20260509133037 | 50 | 301 | 0.0 | 0.0 | 0.00 | 0.00 | 0.00 | 73 | 1005.1 |
| 20260509131530 | 49 | 303 | 0.0 | 0.0 | 0.00 | 0.00 | 0.00 | 73 | 1004.9 |
| 20260509130031 | 50 | 360 | 0.0 | 0.0 | 0.00 | 0.00 | 0.00 | 73 | 1004.8 |
| 20260509124532 | 50 | 290 | 0.0 | 0.0 | 0.00 | 0.00 | 0.00 | 75 | 1004.3 |
| 20260509123025 | 50 | 288 | 0.0 | 0.0 | 0.00 | 0.00 | 0.00 | 78 | 1004.0 |
| 20260509121522 | 50 | 311 | 0.0 | 0.0 | 0.00 | 0.00 | 0.00 | 78 | 1003.8 |
| 20260509120010 | 50 | 300 | 0.0 | 0.0 | 0.00 | 0.00 | 0.00 | 77 | 1003.5 |
| 20260509114524 | 50 | 327 | 0.0 | 0.0 | 0.00 | 0.00 | 0.00 | 79 | 1003.3 |
| 20260509113012 | 51 | 291 | 0.0 | 0.0 | 0.00 | 0.00 | 0.00 | 78 | 1003.0 |
| 20260509111505 | 50 | 268 | 0.0 | 0.0 | 0.00 | 0.00 | 0.00 | 77 | 1002.7 |
| 20260509110003 | 50 | 265 | 0.0 | 0.0 | 0.00 | 0.00 | 0.00 | 77 | 1002.3 |
| 20260509104502 | 50 | 265 | 0.0 | 0.0 | 0.00 | 0.00 | 0.00 | 76 | 1002.0 |
| 20260509103106 | 50 | 279 | 0.0 | 0.0 | 0.00 | 0.00 | 0.00 | 74 | 1001.8 |
| 20260509101624 | 51 | 292 | 0.0 | 0.0 | 0.00 | 0.00 | 0.00 | 70 | 1002.1 |
| 20260509100100 | 51 | 259 | 0.0 | 0.0 | 0.00 | 0.00 | 0.00 | 68 | 1001.6 |
| 20260509094603 | 51 | 300 | 0.0 | 0.0 | 0.00 | 0.00 | 0.00 | 68 | 1001.8 |
| 20260509093105 | 52 | 294 | 0.0 | 0.0 | 0.00 | 0.00 | 0.00 | 67 | 1002.3 |
| 20260509091541 | 52 | 319 | 0.0 | 0.0 | 0.00 | 0.00 | 0.00 | 65 | 1002.2 |
| 20260509090039 | 52 | 355 | 0.0 | 0.0 | 0.00 | 0.00 | 0.00 | 61 | 1002.1 |
| 20260509084527 | 52 | 328 | 0.0 | 0.0 | 0.00 | 0.00 | 0.00 | 56 | 1002.0 |
| 20260509083026 | 52 | 319 | 0.0 | 0.0 | 0.00 | 0.00 | 0.00 | 53 | 1001.9 |
| 20260509081527 | 51 | 321 | 0.0 | 0.0 | 0.00 | 0.00 | 0.00 | 51 | 1001.9 |
| 20260509080026 | 52 | 309 | 0.0 | 0.0 | 0.00 | 0.00 | 0.00 | 49 | 1001.7 |
| 20260509074531 | 52 | 245 | 0.0 | 0.0 | 0.00 | 0.00 | 0.00 | 50 | 1001.0 |
| 20260509073019 | 52 | 224 | 0.0 | 0.0 | 0.00 | 0.00 | 0.00 | 50 | 1000.7 |
| 20260509071518 | 52 | 223 | 0.0 | 0.0 | 0.00 | 0.00 | 0.00 | 50 | 1000.6 |
| 20260509070016 | 52 | 222 | 0.0 | 0.0 | 0.00 | 0.00 | 0.00 | 49 | 1000.9 |
| 20260509064510 | 52 | 224 | 0.0 | 0.0 | 0.00 | 0.00 | 0.00 | 47 | 1001.0 |
| 20260509063014 | 52 | 221 | 0.0 | 0.0 | 0.00 | 0.00 | 0.00 | 47 | 1001.1 |
| 20260509061508 | 52 | 225 | 0.0 | 0.0 | 0.00 | 0.00 | 0.00 | 46 | 1001.3 |
| 20260509060007 | 52 | 259 | 0.0 | 0.0 | 0.00 | 0.00 | 0.00 | 46 | 1001.3 |
| 20260509054501 | 52 | 268 | 0.0 | 0.0 | 0.00 | 0.00 | 0.00 | 45 | 1001.3 |
| 20260509053109 | 52 | 268 | 0.0 | 0.0 | 0.00 | 0.00 | 0.00 | 43 | 1001.5 |
| 20260509051555 | 53 | 275 | 0.0 | 0.0 | 0.00 | 0.00 | 0.00 | 42 | 1001.8 |
| 20260509050053 | 54 | 275 | 0.0 | 0.0 | 0.00 | 0.00 | 0.00 | 40 | 1001.9 |
| 20260509044553 | 54 | 275 | 0.0 | 0.0 | 0.00 | 0.00 | 0.00 | 40 | 1002.2 |
| 20260509043053 | 55 | 275 | 0.0 | 0.0 | 0.00 | 0.00 | 0.00 | 39 | 1002.4 |
| 20260509041615 | 56 | 275 | 0.0 | 0.0 | 0.00 | 0.00 | 0.00 | 37 | 1002.4 |
| 20260509040050 | 57 | 291 | 0.0 | 0.0 | 0.00 | 0.00 | 0.00 | 36 | 1002.6 |
| 20260509034549 | 57 | 284 | 0.0 | 0.0 | 0.00 | 0.00 | 0.00 | 36 | 1002.6 |
| 20260509033019 | 58 | 297 | 0.0 | 0.0 | 0.00 | 0.00 | 0.00 | 35 | 1002.5 |
| 20260509031525 | 59 | 304 | 0.0 | 0.0 | 0.00 | 0.00 | 0.00 | 34 | 1002.5 |
| 20260509030015 | 60 | 306 | 0.0 | 0.0 | 0.00 | 0.00 | 0.00 | 33 | 1002.2 |
| 20260509024516 | 60 | 278 | 0.0 | 0.0 | 0.00 | 0.00 | 0.00 | 33 | 1002.3 |
| 20260509023019 | 61 | 310 | 0.0 | 0.0 | 0.00 | 0.00 | 0.00 | 32 | 1002.2 |
| 20260509021515 | 62 | 306 | 0.0 | 0.0 | 0.00 | 0.00 | 0.00 | 32 | 1002.0 |
| 20260509020053 | 63 | 271 | 0.0 | 0.0 | 0.00 | 0.00 | 0.00 | 31 | 1001.7 |
| 20260509014544 | 64 | 292 | 0.0 | 0.0 | 0.00 | 0.00 | 0.00 | 30 | 1001.3 |
| 20260509013021 | 64 | 268 | 0.0 | 0.0 | 0.00 | 0.00 | 0.00 | 29 | 1001.2 |
| 20260509011513 | 65 | 246 | 0.0 | 0.0 | 0.00 | 0.00 | 0.00 | 28 | 1001.0 |
| 20260509010010 | 66 | 297 | 0.0 | 0.0 | 0.00 | 0.00 | 0.00 | 27 | 1000.7 |
| 20260509004516 | 67 | 283 | 0.0 | 0.0 | 0.00 | 0.00 | 0.00 | 25 | 1000.6 |
| 20260509003008 | 68 | 319 | 0.0 | 0.0 | 0.00 | 0.00 | 0.00 | 25 | 1000.5 |
| 20260509001508 | 68 | 254 | 0.0 | 0.0 | 0.00 | 0.00 | 0.00 | 24 | 1000.5 |
| 20260509000006 | 69 | 311 | 0.0 | 0.0 | 0.00 | 0.00 | 0.00 | 24 | 1000.4 |
| 20260508234505 | 69 | 322 | 0.0 | 0.0 | 0.00 | 0.00 | 0.00 | 25 | 1000.4 |
| 20260508233004 | 68 | 268 | 0.0 | 0.0 | 0.00 | 0.00 | 0.00 | 25 | 1000.6 |
| 20260508231503 | 70 | 282 | 0.0 | 0.0 | 0.00 | 0.00 | 0.00 | 24 | 1000.6 |
| 20260508230105 | 70 | 252 | 0.0 | 0.0 | 0.00 | 0.00 | 0.00 | 24 | 1000.6 |
| 20260508230000 | 70 | 271 | 0.0 | 0.0 | 0.00 | 0.00 | 0.00 | 24 | 1000.6 |
| 20260508224602 | 70 | 288 | 0.0 | 0.0 | 0.00 | 0.00 | 0.00 | 26 | 1000.5 |
| 20260508223058 | 69 | 244 | 0.0 | 0.0 | 0.00 | 0.00 | 0.00 | 26 | 1000.5 |
| 20260508221557 | 70 | 265 | 0.0 | 0.0 | 0.00 | 0.00 | 0.00 | 26 | 1000.7 |
| 20260508220053 | 70 | 275 | 0.0 | 0.0 | 0.00 | 0.00 | 0.00 | 26 | 1000.7 |
| 20260508214551 | 69 | 262 | 0.0 | 0.0 | 0.00 | 0.00 | 0.00 | 26 | 1000.8 |
| 20260508213050 | 69 | 314 | 0.0 | 0.0 | 0.00 | 0.00 | 0.00 | 25 | 1001.1 |
| 20260508211547 | 69 | 245 | 0.0 | 0.0 | 0.00 | 0.00 | 0.00 | 26 | 1001.1 |
| 20260508210043 | 69 | 309 | 0.0 | 0.0 | 0.00 | 0.00 | 0.00 | 26 | 1001.3 |
| 20260508204544 | 68 | 241 | 0.0 | 0.0 | 0.00 | 0.00 | 0.00 | 26 | 1001.6 |
| 20260508203040 | 68 | 234 | 0.0 | 0.0 | 0.00 | 0.00 | 0.00 | 26 | 1001.8 |
| 20260508201538 | 68 | 260 | 0.0 | 0.0 | 0.00 | 0.00 | 0.00 | 25 | 1002.2 |
| 20260508200031 | 68 | 239 | 0.0 | 0.0 | 0.00 | 0.00 | 0.00 | 26 | 1002.5 |
| 20260508194535 | 67 | 272 | 0.0 | 0.0 | 0.00 | 0.00 | 0.00 | 25 | 1002.7 |
| 20260508193028 | 67 | 315 | 0.0 | 0.0 | 0.00 | 0.00 | 0.00 | 24 | 1003.0 |